Погода в Пряже

Россия / Республика Карелия     61°41′34″N   33°37′10″E
темп.,
°C
ветер,
м/с
пор.,
м/с
влажн.,
%
обл.,
%
осадки,
мм/ч
давл.,
гПа
погр.,
м
19 сентября, вс
вс1900:00+5в1273100 0.0 103055
03:00+5всв2376100 0.0 1031111
06:00+5всв2681100 0.0 1031219
09:00+6всв2670100 0.0 1031586
12:00+8в3558100 0.0 10311469
15:00+8всв355679 0.0 10311424
18:00+6всв37645 0.0 1030405
21:00+2св298583 0.0 1031193
20 сентября, пн
пн2000:00+6в497069 0.0 1032702
03:00+1всв279359 0.0 1032141
06:00+5всв4865100 0.0 10321063
09:00+7всв495798 0.0 10321444
12:00+8в585760 0.0 10321416
15:00+8всв585553 0.0 10311371
18:00+6всв4861100 0.0 10311349
21:00+5в4761100 0.0 1030970
21 сентября, вт
вт2100:00+4в277199 0.0 1030345
03:00+2всв279428 0.0 1029153
06:00+1св299728 0.0 1028236
09:00+5всв497744 0.0 1027710
12:00+8в465776 0.0 10251037
15:00+8в4658100 0.0 10241015
18:00+7всв376772 0.0 1024495
21:00+4всв2582100 0.0 102493
22 сентября, ср
ср2200:00+3всв229294 0.0 102426
03:00+2всв22965 0.0 102430
06:00+2всв26987 0.0 1024116
09:00+6всв37835 0.0 1024407
12:00+10всв34571 0.0 1023863
15:00+10всв34574 0.0 1022936
18:00+7в26720 0.0 1022210
21:00+3всв11890 0.0 102112
23 сентября, чт
чт2300:00+3в22930 0.0 101936
03:00+2в229529 0.0 101722
06:00+2вюв249396 0.0 101596
09:00+5ююв2781100 0.0 1014333
12:00+6ююв2883100 0.0 1013504
15:00+7ююв3887100 0.0 1011752
18:00+8ююв3984100 0.0 1010668
21:00+7ююв3985100 0.0 1009693